Regional Weather Roundup
Issued by NWS

Home | Current Version | Previous Version | Text Only | Print | Product List | Glossary On
Versions: 1 2 3 4 5 6 7 8 9 10 11 12 13 14 15 16 17 18 19 20 21 22 23 24 25 26 27 28 29 30 31 32 33 34 35 36 37 38 39 40 41 42 43 44 45 46 47 48 49 50
000
ASUS43 KLSX 221807
RWRMO

WEATHER SUMMARY FOR MISSOURI
NATIONAL WEATHER SERVICE SPRINGFIELD MO
100 PM CDT FRI SEP 22 2017

NOTE: "FAIR" INDICATES FEW OR NO CLOUDS BELOW 12,000 FEET WITH NO
       SIGNIFICANT WEATHER AND/OR OBSTRUCTIONS TO VISIBILITY.
       CURRENT SKY AND/OR WEATHER CONDITIONS ARE NOT AVAILABLE FOR
       CHILLICOTHE AND FARMINGTON.

MOZ001>031-035>038-043-044-053-054-221900-
...NORTHERN AND WESTERN MISSOURI...

CITY           SKY/WX    TMP DP  RH WIND       PRES   REMARKS
KANSAS CTY INT MOSUNNY   87  72  60 S14       29.97F HX  93
6HR MIN TEMP:  73; 6HR MAX TEMP:  87;

KANSAS C DTWN  SUNNY     90  72  55 S10G21    29.96F HX  97
6HR MIN TEMP:  76; 6HR MAX TEMP:  90;

LEE`S SUMMIT   SUNNY     87  71  58 S15       29.99F HX  93
6HR MIN TEMP:  72; 6HR MAX TEMP:  87;

ST JOSEPH      SUNNY     90  72  55 S15G21    29.93F HX  97
6HR MIN TEMP:  74; 6HR MAX TEMP:  91;

CHILLICOTHE      N/A     89  71  55 VRB7G20   29.99F HX  95
6HR MIN TEMP:  72; 6HR MAX TEMP:  89;

KIRKSVILLE     MOSUNNY   89  70  53 S15G21    30.02F HX  94
6HR MIN TEMP:  68; 6HR MAX TEMP:  89;


$$
MOZ066>068-077>081-088>096-101>105-221900-
...SOUTHWEST MISSOURI...

CITY           SKY/WX    TMP DP  RH WIND       PRES   REMARKS
SPRINGFIELD    MOSUNNY   88  68  51 SW10G22   30.05F HX  91
6HR MIN TEMP:  71; 6HR MAX TEMP:  88;

JOPLIN         SUNNY     87  71  58 S14       30.02F HX  93
6HR MIN TEMP:  71; 6HR MAX TEMP:  87;

BRANSON        MOSUNNY   88  66  48 SE9       30.07F HX  90

$$
MOZ032>034-039>042-045>050-055>058-069>072-221900-
...CENTRAL MISSOURI...

CITY           SKY/WX    TMP DP  RH WIND       PRES   REMARKS
COLUMBIA       SUNNY     89  68  49 S10       30.04F HX  93
6HR MIN TEMP:  71; 6HR MAX TEMP:  89;

JEFFERSON CITY SUNNY     88  63  43 SE9       30.02F
6HR MIN TEMP:  69; 6HR MAX TEMP:  88;

ROLLA          MOSUNNY   88  67  49 VRB7      30.07F HX  91
6HR MIN TEMP:  71; 6HR MAX TEMP:  90;

SEDALIA        MOSUNNY   90  72  55 S16       30.03F HX  97
6HR MIN TEMP:  72; 6HR MAX TEMP:  90;

WHITEMAN AFB   MOSUNNY   87  71  59 S17       30.00F HX  93
WARRENSBURG    SUNNY     86  68  54 SE12      30.00F

$$
MOZ051-052-059>065-221900-
...EAST CENTRAL MISSOURI...

CITY           SKY/WX    TMP DP  RH WIND       PRES   REMARKS
ST LOUIS INTL  MOSUNNY   92  65  40 SE14      30.05F HX  94
6HR MIN TEMP:  71; 6HR MAX TEMP:  93;

SPIRIT OF STL  MOSUNNY   92  67  43 VRB6      30.03F HX  95
6HR MIN TEMP:  67; 6HR MAX TEMP:  92;

ST CHARLES     MOSUNNY   93  66  40 S12       30.03F HX  96
6HR MIN TEMP:  67; 6HR MAX TEMP:  93;


$$
MOZ072>076-082>087-097>100-106>115-221900-
...SOUTH CENTRAL AND SOUTHEAST MISSOURI...

CITY           SKY/WX    TMP DP  RH WIND       PRES   REMARKS
CAPE GIRARDEAU MOSUNNY   91  65  41 SE7       30.04F HX  93
6HR MIN TEMP:  64; 6HR MAX TEMP:  91;

FARMINGTON     MOSUNNY   87  67  51 E3        30.07F HX  90
6HR MIN TEMP:  65; 6HR MAX TEMP:  89;

POPLAR BLUFF   MOSUNNY   90  69  50 CALM      30.03F HAZE    HX  94
6HR MIN TEMP:  66; 6HR MAX TEMP:  91;

WEST PLAINS    MOSUNNY   88  65  46 S6        30.08F HX  90
6HR MIN TEMP:  68; 6HR MAX TEMP:  89;


$$



USA.gov is the U.S. government's official web portal to all federal, state and local government web resources and services.